FW4008 Weather Reports


time (UTC)temp
C
wind
direction
speed
KPH
gust
KPH
rain 1hr
cm
rain 24hr
cm
rain mn
cm
humidity
%
barometer
mb
20260506215446 25 262 8.0 20.9 0.00 0.00 0.00 41 1009.2
20260506214945 25 262 8.0 16.1 0.00 0.00 0.00 41 1009.3
20260506214446 25 263 6.4 17.7 0.00 0.00 0.00 40 1009.3
20260506213946 25 259 4.8 17.7 0.00 0.00 0.00 39 1009.2
20260506213446 25 261 4.8 16.1 0.00 0.00 0.00 40 1009.2
20260506212946 25 268 4.8 16.1 0.00 0.00 0.00 42 1009.4
20260506212446 25 260 3.2 12.9 0.00 0.00 0.00 41 1009.4
20260506211946 25 273 1.6 12.9 0.00 0.00 0.00 40 1009.5
20260506211445 25 285 3.2 11.3 0.00 0.00 0.00 40 1009.7
20260506210947 25 338 1.6 11.3 0.00 0.00 0.00 41 1009.7
20260506210446 25 113 1.6 8.0 0.00 0.00 0.00 41 1009.7
20260506205946 24 119 3.2 12.9 0.00 0.00 0.00 42 1009.7
20260506203946 25 280 1.6 11.3 0.00 0.00 0.00 40 1010.0
20260506203447 25 281 3.2 12.9 0.00 0.00 0.00 41 1010.0
20260506202446 25 277 4.8 12.9 0.00 0.00 0.00 40 1010.1
20260506201946 24 274 4.8 11.3 0.00 0.00 0.00 40 1010.1
20260506201446 24 282 3.2 11.3 0.00 0.00 0.00 41 1010.1
20260506200946 24 279 1.6 14.5 0.00 0.00 0.00 40 1010.2
20260506200446 24 275 1.6 14.5 0.00 0.00 0.00 39 1010.3
20260506195946 24 270 0.0 4.8 0.00 0.00 0.00 39 1010.3
20260506195446 24 36 0.0 1.6 0.00 0.00 0.00 40 1010.2
20260506194946 24 12 1.6 9.7 0.00 0.00 0.00 41 1010.4
20260506194446 24 10 3.2 12.9 0.00 0.00 0.00 41 1010.4
20260506193946 23 342 1.6 12.9 0.00 0.00 0.00 41 1010.6
20260506193446 23 299 3.2 12.9 0.00 0.00 0.00 40 1010.7
20260506192946 23 296 3.2 12.9 0.00 0.00 0.00 41 1010.7
20260506192446 23 285 1.6 12.9 0.00 0.00 0.00 41 1010.8
20260506191946 22 333 1.6 8.0 0.00 0.00 0.00 42 1010.9
20260506190446 22 302 1.6 6.4 0.00 0.00 0.00 44 1011.3
20260506185946 22 265 1.6 9.7 0.00 0.00 0.00 43 1011.2
20260506184946 22 161 0.0 11.3 0.00 0.00 0.00 43 1011.1
20260506184446 22 154 1.6 14.5 0.00 0.00 0.00 43 1011.1
20260506183446 21 164 3.2 11.3 0.00 0.00 0.00 43 1011.0
20260506182946 21 163 1.6 11.3 0.00 0.00 0.00 43 1011.0
20260506181447 21 161 1.6 16.1 0.00 0.00 0.00 41 1011.1
20260506180446 20 151 1.6 12.9 0.00 0.00 0.00 42 1011.2
20260506175946 20 148 3.2 14.5 0.00 0.00 0.00 41 1011.2
20260506175446 20 154 1.6 14.5 0.00 0.00 0.00 42 1011.4
20260506174945 20 176 1.6 12.9 0.00 0.00 0.00 41 1011.3
20260506173447 20 172 3.2 12.9 0.00 0.00 0.00 41 1011.4
20260506172946 20 173 3.2 12.9 0.00 0.00 0.00 41 1011.6
20260506172446 19 161 3.2 12.9 0.00 0.00 0.00 41 1011.7
20260506171946 19 162 3.2 12.9 0.00 0.00 0.00 42 1011.7
20260506171446 18 163 3.2 16.1 0.00 0.00 0.00 41 1011.7
20260506170946 18 163 3.2 16.1 0.00 0.00 0.00 40 1011.7
20260506170446 18 156 1.6 11.3 0.00 0.00 0.00 40 1011.8
20260506165946 18 144 3.2 11.3 0.00 0.00 0.00 39 1011.9
20260506165446 18 148 3.2 11.3 0.00 0.00 0.00 39 1011.8
20260506164446 18 169 1.6 8.0 0.00 0.00 0.00 39 1011.9
20260506163946 17 163 0.0 8.0 0.00 0.00 0.00 39 1012.0
20260506163446 17 146 0.0 8.0 0.00 0.00 0.00 41 1012.0
20260506162946 17 145 0.0 8.0 0.00 0.00 0.00 42 1011.9
20260506161946 16 95 0.0 1.6 0.00 0.00 0.00 43 1011.9
20260506161446 16 90 0.0 9.7 0.00 0.00 0.00 43 1011.9
20260506160945 15 106 1.6 9.7 0.00 0.00 0.00 45 1012.0
20260506160447 15 167 1.6 8.0 0.00 0.00 0.00 43 1012.0
20260506155946 15 166 1.6 8.0 0.00 0.00 0.00 43 1012.0
20260506154946 15 154 1.6 8.0 0.00 0.00 0.00 46 1012.0
20260506153945 14 146 1.6 6.4 0.00 0.00 0.00 48 1012.1
20260506152946 13 153 0.0 4.8 0.00 0.00 0.00 51 1012.1
20260506152446 13 131 0.0 8.0 0.00 0.00 0.00 51 1012.2
20260506151946 13 114 0.0 8.0 0.00 0.00 0.00 50 1012.1
20260506151446 12 26 0.0 3.2 0.00 0.00 0.00 55 1012.1
20260506150946 12 58 0.0 4.8 0.00 0.00 0.00 55 1012.2
20260506150446 12 58 0.0 4.8 0.00 0.00 0.00 56 1012.1
20260506145946 12 67 0.0 6.4 0.00 0.00 0.00 57 1012.0
20260506145445 12 67 0.0 6.4 0.00 0.00 0.00 58 1012.1
20260506144947 11 0 0.0 0.0 0.00 0.00 0.00 59 1012.1
20260506143946 11 133 0.0 3.2 0.00 0.00 0.00 60 1012.1
20260506143446 11 128 0.0 1.6 0.00 0.00 0.00 61 1012.1
20260506142946 11 143 0.0 6.4 0.00 0.00 0.00 62 1012.1
20260506142446 10 143 0.0 6.4 0.00 0.00 0.00 63 1012.1
20260506141946 10 141 0.0 1.6 0.00 0.00 0.00 64 1012.1
20260506141446 10 0 0.0 0.0 0.00 0.00 0.00 65 1012.2
20260506140446 10 221 0.0 4.8 0.00 0.00 0.00 66 1012.2
20260506135945 10 237 0.0 3.2 0.00 0.00 0.00 67 1012.3
20260506135446 10 0 0.0 0.0 0.00 0.00 0.00 68 1012.2
20260506134946 9 0 0.0 0.0 0.00 0.00 0.00 67 1012.2
20260506134446 9 236 0.0 3.2 0.00 0.00 0.00 66 1012.2
20260506133445 9 0 0.0 0.0 0.00 0.00 0.00 66 1012.2
20260506132945 9 0 0.0 0.0 0.00 0.00 0.00 66 1012.1
20260506132445 8 240 0.0 1.6 0.00 0.00 0.00 68 1012.0
20260506131446 8 240 0.0 3.2 0.00 0.00 0.00 70 1012.0
20260506130446 8 0 0.0 0.0 0.00 0.00 0.00 71 1012.0
20260506125947 8 0 0.0 0.0 0.00 0.00 0.00 72 1011.9
20260506125446 8 0 0.0 0.0 0.00 0.00 0.00 72 1011.9
20260506124946 8 0 0.0 0.0 0.00 0.00 0.00 72 1011.9
20260506124446 8 0 0.0 0.0 0.00 0.00 0.00 73 1011.9
20260506123446 8 0 0.0 0.0 0.00 0.00 0.00 72 1011.9
20260506122947 8 0 0.0 0.0 0.00 0.00 0.00 70 1011.8
20260506122445 8 0 0.0 0.0 0.00 0.00 0.00 69 1011.7
20260506121946 8 0 0.0 0.0 0.00 0.00 0.00 69 1011.7
20260506121446 8 0 0.0 0.0 0.00 0.00 0.00 69 1011.6
20260506120946 8 0 0.0 0.0 0.00 0.00 0.00 69 1011.6
20260506120446 8 0 0.0 0.0 0.00 0.00 0.00 69 1011.6
20260506115948 8 0 0.0 0.0 0.00 0.00 0.00 69 1011.5
20260506115445 9 0 0.0 0.0 0.00 0.00 0.00 68 1011.6
20260506114945 9 0 0.0 0.0 0.00 0.00 0.00 68 1011.5
20260506114446 9 0 0.0 0.0 0.00 0.00 0.00 68 1011.6
20260506113945 9 0 0.0 0.0 0.00 0.00 0.00 68 1011.5
20260506113446 9 0 0.0 0.0 0.00 0.00 0.00 68 1011.6
20260506111946 9 0 0.0 0.0 0.00 0.00 0.00 68 1011.6
20260506111446 9 0 0.0 0.0 0.00 0.00 0.00 68 1011.6
20260506110446 9 0 0.0 0.0 0.00 0.00 0.00 68 1011.6
20260506105947 10 0 0.0 0.0 0.00 0.00 0.00 68 1011.5
20260506105446 10 0 0.0 0.0 0.00 0.00 0.00 68 1011.5
20260506104946 10 0 0.0 0.0 0.00 0.00 0.00 67 1011.5
20260506104446 10 0 0.0 0.0 0.00 0.00 0.00 67 1011.5
20260506103946 10 0 0.0 0.0 0.00 0.00 0.00 68 1011.5
20260506103446 9 0 0.0 0.0 0.00 0.00 0.00 69 1011.4
20260506101946 10 0 0.0 0.0 0.00 0.00 0.00 70 1011.5
20260506101446 10 0 0.0 0.0 0.00 0.00 0.00 70 1011.4
20260506100946 10 0 0.0 0.0 0.00 0.00 0.00 71 1011.5
20260506095446 10 0 0.0 0.0 0.00 0.00 0.00 70 1011.4
20260506094946 10 0 0.0 0.0 0.00 0.00 0.00 69 1011.4
20260506093946 10 0 0.0 0.0 0.00 0.00 0.00 69 1011.3
20260506093446 10 0 0.0 0.0 0.00 0.00 0.00 69 1011.3
20260506092947 10 0 0.0 0.0 0.00 0.00 0.00 69 1011.3
20260506092446 10 0 0.0 0.0 0.00 0.00 0.00 69 1011.4
20260506091946 10 0 0.0 0.0 0.00 0.00 0.00 69 1011.4
20260506091446 10 0 0.0 0.0 0.00 0.00 0.00 69 1011.3
20260506090946 10 0 0.0 0.0 0.00 0.00 0.00 69 1011.3
20260506090445 10 0 0.0 0.0 0.00 0.00 0.00 70 1011.4
20260506085946 11 0 0.0 0.0 0.00 0.00 0.00 70 1011.4
20260506085445 11 0 0.0 0.0 0.00 0.00 0.00 70 1011.3
20260506084446 11 0 0.0 0.0 0.00 0.00 0.00 69 1011.2
20260506083946 11 0 0.0 0.0 0.00 0.00 0.00 67 1011.2
20260506082946 12 0 0.0 0.0 0.00 0.00 0.00 64 1011.3
20260506082446 12 0 0.0 0.0 0.00 0.00 0.00 64 1011.2
20260506081946 12 0 0.0 0.0 0.00 0.00 0.00 62 1011.2
20260506081445 12 0 0.0 0.0 0.00 0.00 0.00 62 1011.1
20260506080946 12 0 0.0 0.0 0.00 0.00 0.00 61 1011.0
20260506080446 12 0 0.0 0.0 0.00 0.00 0.00 62 1010.9
20260506073446 12 0 0.0 0.0 0.00 0.00 0.00 65 1010.8
20260506072946 12 0 0.0 0.0 0.00 0.00 0.00 64 1010.8
20260506072446 12 0 0.0 0.0 0.00 0.00 0.00 63 1010.8
20260506071945 12 0 0.0 0.0 0.00 0.00 0.00 63 1010.8
20260506070946 12 0 0.0 0.0 0.00 0.00 0.00 63 1010.7
20260506070447 12 0 0.0 0.0 0.00 0.00 0.00 62 1010.8
20260506062446 13 148 0.0 4.8 0.00 0.00 0.00 59 1010.5
20260506061947 13 149 0.0 4.8 0.00 0.00 0.00 60 1010.5
20260506061446 13 149 0.0 3.2 0.00 0.00 0.00 61 1010.3
20260506060946 13 149 0.0 3.2 0.00 0.00 0.00 61 1010.3
20260506060446 13 0 0.0 0.0 0.00 0.00 0.00 61 1010.2
20260506050946 15 149 0.0 1.6 0.00 0.00 0.00 54 1009.6
20260506050446 15 146 0.0 1.6 0.00 0.00 0.00 53 1009.6
20260506044946 15 173 0.0 3.2 0.00 0.00 0.00 50 1009.5
20260506044446 16 173 0.0 3.2 0.00 0.00 0.00 48 1009.4
20260506043946 16 173 0.0 3.2 0.00 0.00 0.00 47 1009.3
20260506043446 15 0 0.0 0.0 0.00 0.00 0.00 47 1009.3
20260506042946 15 0 0.0 0.0 0.00 0.00 0.00 48 1009.3
20260506042445 16 0 0.0 0.0 0.00 0.00 0.00 47 1009.3
20260506041945 16 0 0.0 0.0 0.00 0.00 0.00 46 1009.2
20260506040946 16 0 0.0 0.0 0.00 0.00 0.00 45 1009.2
20260506040446 16 0 0.0 0.0 0.00 0.00 0.00 43 1009.1
20260506035446 16 0 0.0 0.0 0.00 0.00 0.00 43 1009.1
20260506034446 17 0 0.0 0.0 0.00 0.00 0.00 42 1009.1
20260506033946 17 0 0.0 0.0 0.00 0.00 0.00 41 1009.1
20260506033446 17 0 0.0 0.0 0.00 0.00 0.00 42 1009.1
20260506032946 18 0 0.0 0.0 0.00 0.00 0.00 41 1009.0
20260506032446 18 0 0.0 0.0 0.00 0.00 0.00 39 1009.0
20260506031946 18 0 0.0 0.0 0.00 0.00 0.00 37 1009.1
20260506031446 18 0 0.0 0.0 0.00 0.00 0.00 36 1008.9
20260506030946 19 0 0.0 0.0 0.00 0.00 0.00 35 1008.9
20260506030446 20 0 0.0 0.0 0.00 0.00 0.00 35 1008.9
20260506025945 20 0 0.0 0.0 0.00 0.00 0.00 33 1008.9
20260506025445 20 0 0.0 0.0 0.00 0.00 0.00 33 1008.8
20260506024946 21 0 0.0 0.0 0.00 0.00 0.00 31 1008.8
20260506023945 21 0 0.0 0.0 0.00 0.00 0.00 29 1008.8
20260506023446 21 0 0.0 0.0 0.00 0.00 0.00 28 1008.8
20260506022947 21 0 0.0 0.0 0.00 0.00 0.00 28 1008.8
20260506022446 21 0 0.0 0.0 0.00 0.00 0.00 28 1008.9
20260506021946 21 0 0.0 0.0 0.00 0.00 0.00 28 1008.8
20260506020445 22 0 0.0 0.0 0.00 0.00 0.00 27 1008.8
20260506015946 22 0 0.0 0.0 0.00 0.00 0.00 25 1008.7
20260506015446 22 71 0.0 6.4 0.00 0.00 0.00 26 1008.8
20260506014947 22 72 0.0 6.4 0.00 0.00 0.00 26 1008.7
20260506014446 22 59 0.0 6.4 0.00 0.00 0.00 26 1008.8
20260506013946 22 57 0.0 6.4 0.00 0.00 0.00 25 1008.7
20260506012945 22 0 0.0 0.0 0.00 0.00 0.00 27 1008.7
20260506012445 22 89 0.0 6.4 0.00 0.00 0.00 25 1008.7
20260506011945 22 139 1.6 6.4 0.00 0.00 0.00 27 1008.8
20260506011446 22 115 1.6 12.9 0.00 0.00 0.00 26 1008.8
20260506010946 22 92 1.6 12.9 0.00 0.00 0.00 25 1008.8
20260506010446 23 91 1.6 11.3 0.00 0.00 0.00 24 1008.8
20260506005946 23 62 1.6 16.1 0.00 0.00 0.00 24 1008.8
20260506005446 23 63 0.0 16.1 0.00 0.00 0.00 26 1009.0
20260506004946 23 69 3.2 16.1 0.00 0.00 0.00 25 1008.9
20260506004446 23 59 4.8 16.1 0.00 0.00 0.00 25 1009.0
20260506003946 23 52 3.2 14.5 0.00 0.00 0.00 24 1008.9
20260506002946 23 66 3.2 12.9 0.00 0.00 0.00 24 1008.9
20260506002446 23 58 4.8 14.5 0.00 0.00 0.00 24 1008.9
20260506001946 23 48 4.8 14.5 0.00 0.00 0.00 23 1009.1
20260506001446 23 32 4.8 14.5 0.00 0.00 0.00 24 1009.1
20260506000945 23 34 6.4 17.7 0.00 0.00 0.00 24 1009.1
20260506000446 23 41 9.7 17.7 0.00 0.00 0.00 24 1009.2
20260505235946 23 41 8.0 17.7 0.00 0.00 0.00 23 1009.3
20260505235446 23 40 8.0 17.7 0.00 0.00 0.00 23 1009.4
20260505234946 23 42 4.8 17.7 0.00 0.00 0.00 23 1009.5
20260505233946 23 26 8.0 20.9 0.00 0.00 0.00 25 1009.5
20260505233446 23 22 8.0 22.5 0.00 0.00 0.00 25 1009.6
20260505232946 23 28 4.8 22.5 0.00 0.00 0.00 24 1009.5
20260505232446 23 33 1.6 16.1 0.00 0.00 0.00 25 1009.4
20260505231946 23 27 6.4 19.3 0.00 0.00 0.00 24 1009.4
20260505231446 23 28 4.8 19.3 0.00 0.00 0.00 25 1009.6
20260505230946 23 21 3.2 19.3 0.00 0.00 0.00 25 1009.5
20260505230446 23 43 6.4 20.9 0.00 0.00 0.00 24 1009.5
20260505225946 23 58 3.2 20.9 0.00 0.00 0.00 26 1009.8
20260505225446 23 23 1.6 19.3 0.00 0.00 0.00 26 1009.9
20260505224946 23 31 6.4 20.9 0.00 0.00 0.00 26 1009.9
20260505224447 23 24 8.0 20.9 0.00 0.00 0.00 25 1009.9
20260505223946 23 359 3.2 16.1 0.00 0.00 0.00 25 1010.0
20260505223446 22 355 3.2 19.3 0.00 0.00 0.00 26 1010.0
20260505222946 23 14 4.8 22.5 0.00 0.00 0.00 26 1010.1
20260505222446 23 21 8.0 22.5 0.00 0.00 0.00 25 1010.0
20260505221446 23 351 6.4 19.3 0.00 0.00 0.00 25 1010.2
20260505220445 23 333 4.8 19.3 0.00 0.00 0.00 26 1010.2